Simultaneous Nadir Overpasses (SNOs) Predictions

Prediction of SNOs between LANDSAT-8 and NPP Satellite Orbit:

Table of predicted SNOs for the next 14.0 days since TLE Epoch: 3/30/2024
Index Date (LANDSAT-8) Time (LANDSAT-8) Lat,Lon (LANDSAT-8) SZA (LANDSAT-8 ) Date (NPP) Time (NPP) Lat,Lon (NPP) SZA (NPP ) Distance(km) Time Diff (sec)
1 03/30/2024 06:08:31 70.21, 84.30 66.20 03/30/2024 06:07:47 70.20, 84.30 66.20 0.63 44
2 03/30/2024 06:58:01 -70.10,-108.23 113.93 03/30/2024 06:58:28 -70.08,-108.18 113.95 2.80 27
3 04/01/2024 21:35:21 -70.98, 33.69 114.09 04/01/2024 21:34:13 -71.03, 31.42 113.97 82.08 68
4 04/01/2024 22:25:01 70.17,-159.88 65.12 04/01/2024 22:24:43 70.17,-159.88 65.12 0.41 18
5 04/01/2024 23:14:31 -70.06, 7.59 115.00 04/01/2024 23:15:24 -70.04, 7.64 115.03 3.15 53
6 04/04/2024 13:52:03 -70.25, 148.46 115.82 04/04/2024 13:50:55 -70.27, 148.41 115.79 2.87 68
7 04/04/2024 14:41:30 70.14, -44.05 64.07 04/04/2024 14:41:39 70.15, -44.09 64.07 1.68 9
8 04/04/2024 15:31:04 -69.82, 123.13 116.27 04/04/2024 15:32:16 -69.80, 123.75 116.31 24.05 72
9 04/07/2024 06:08:32 -70.18, -95.76 116.90 04/07/2024 06:07:50 -70.21, -95.73 116.87 3.02 42
10 04/07/2024 06:57:58 70.07, 71.73 62.98 04/07/2024 06:58:33 70.09, 71.77 62.99 2.48 35
11 04/09/2024 21:35:21 70.66,-146.80 62.58 04/09/2024 21:34:11 70.72,-148.10 62.68 48.04 70
12 04/09/2024 22:24:58 -70.18, 20.11 117.91 04/09/2024 22:24:44 -70.16, 20.12 117.93 2.08 14
13 04/09/2024 23:14:25 70.06,-172.41 61.97 04/09/2024 23:15:28 70.04,-172.40 61.94 1.96 63
14 04/12/2024 13:51:55 70.22, -31.56 61.17 04/12/2024 13:50:57 70.22, -31.53 61.17 1.61 58
15 04/12/2024 14:41:25 -70.12, 135.92 118.95 04/12/2024 14:41:39 -70.12, 135.94 118.95 0.51 14
16 04/12/2024 15:31:03 69.40, -57.43 60.34 04/12/2024 15:32:11 69.37, -55.65 60.27 69.71 68



Historial Predications of SNOs between LANDSAT-8 and NPP
